Regional Weather Roundup
Issued by NWS Sioux Falls, SD

Home | Current Version | Previous Version | Text Only | Print | Product List | Glossary On
Versions: 1 2 3 4 5 6 7 8 9 10 11 12 13 14 15 16 17 18 19 20 21 22 23 24 25 26 27 28 29 30 31 32 33 34 35 36 37 38 39 40 41 42 43 44 45 46 47 48 49 50
000
ASUS43 KFSD 041110
RWRFSD

WEATHER ROUNDUP FOR SE SOUTH DAKOTA/SW MINNESOTA/NW IOWA
NATIONAL WEATHER SERVICE SIOUX FALLS SD
600 AM CDT TUE AUG 04 2015

NOTE: "FAIR" INDICATES FEW OR NO CLOUDS BELOW 12,000 FEET WITH NO
SIGNIFICANT WEATHER AND OR OBSTRUCTIONS TO VISIBILITY.


SDZ038>040-050-052>070-041200-
SOUTHEAST SOUTH DAKOTA

CITY           SKY/WX    TMP DP  RH WIND       PRES   REMARKS
BROOKINGS      MOCLDY    54  48  82 CALM      30.03R
CHAMBERLAIN    LGT RAIN  66  63  89 S10       30.00R
HURON          CLOUDY    59  54  83 SE5       29.99R
MADISON        FAIR      57  57 100 E3        30.01S
MITCHELL       CLOUDY    62  59  90 SE3       30.00R
SIOUX FALLS    CLOUDY    59  54  83 E3        30.01R
WINNER         LGT RAIN  65  62  90 SW6       30.02R
YANKTON        CLOUDY    64  63  94 E5        29.98R
$$

MNZ071-072-080-081-089-090-097-098-041200-
SOUTHWEST MINNESOTA

CITY           SKY/WX    TMP DP  RH WIND       PRES   REMARKS
FAIRMONT       CLEAR     54  45  71 CALM      30.00R
JACKSON        PTCLDY    54  54 100 CALM      30.01R
LUVERNE        CLOUDY    55  54  94 CALM      30.02R
MARSHALL       CLEAR     52  46  82 CALM      30.01R
MONTEVIDEO     CLEAR     52  45  76 W3        30.01R
PIPESTONE      CLOUDY    57  52  82 SE3       30.01S
REDWOOD FALLS  CLEAR     55  51  86 SW8       29.99R
TRACY          PTCLDY    59  54  82 SW6       30.01R
WINDOM         PTCLDY    52  46  82 CALM      30.01R
WORTHINGTON    MOCLDY    54  48  82 CALM      30.02R
$$

IAZ001>003-012>014-020>022-031-032-NEZ013-014-SDZ071-041200-
NORTHWEST IOWA

CITY           SKY/WX    TMP DP  RH WIND       PRES   REMARKS
CHEROKEE       CLOUDY    60  60 100 CALM      30.00R
DENISON        CLOUDY    64  63  94 CALM      29.97R
ESTHERVILLE    PTCLDY    52  50  93 NW3       30.01R
LE MARS        CLOUDY    61  59  94 N3        30.01R
ORANGE CITY    CLOUDY    63  57  82 E3        30.01R
SHELDON        CLOUDY    55  55 100 E3        30.00R
SIOUX CITY     CLOUDY    67  61  81 CALM      29.99R
SPENCER        MOCLDY    56  52  86 CALM      30.01R
STORM LAKE     CLOUDY    61  59  94 CALM      30.01R
$$

ABBREVIATIONS USED IN REMARKS
   TC - TEMPERATURE IN CELSIUS
  WCI - WIND CHILL INDEX
   HX - HEAT INDEX
  VSB - VISIBILITY



USA.gov is the U.S. government's official web portal to all federal, state and local government web resources and services.